FW6937 Weather Reports


Display with metric or nautical units.
time (UTC)temp
F
wind
direction
speed
MPH
gust
MPH
rain 1hr
in
rain 24hr
in
rain mn
in
humidity
%
barometer
mb
20260506002601 71 0 0.0 0.0 0.00 0.00 0.00 56 1013.3
20260506002057 72 247 0.0 0.0 0.00 0.00 0.00 55 1013.4
20260506001618 73 0 0.0 2.0 0.00 0.00 0.00 54 1013.3
20260506001057 73 247 0.0 3.0 0.00 0.00 0.00 53 1013.5
20260506000558 73 248 1.0 3.0 0.00 0.00 0.00 54 1013.4
20260506000105 74 252 2.0 3.0 0.00 0.00 0.00 55 1013.4
20260505235555 74 243 2.0 2.0 0.00 0.00 0.00 52 1013.4
20260505235055 74 246 1.0 3.0 0.00 0.00 0.00 54 1013.3
20260505234611 74 243 2.0 3.0 0.00 0.00 0.00 51 1013.3
20260505234058 74 262 2.0 3.0 0.00 0.00 0.00 51 1013.3
20260505233557 74 250 2.0 4.0 0.00 0.00 0.00 51 1013.3
20260505233057 74 241 2.0 5.0 0.00 0.00 0.00 49 1013.3
20260505232558 74 252 3.0 5.0 0.00 0.00 0.00 48 1013.3
20260505232059 75 254 2.0 6.0 0.00 0.00 0.00 47 1013.4
20260505231558 75 248 4.0 6.0 0.00 0.00 0.00 46 1013.4
20260505231057 75 252 2.0 6.0 0.00 0.00 0.00 48 1013.4
20260505230559 75 249 3.0 7.0 0.00 0.00 0.00 48 1013.4
20260505230056 75 266 4.0 7.0 0.00 0.00 0.00 47 1013.4
20260505225559 75 258 2.0 4.0 0.00 0.00 0.00 48 1013.5
20260505225058 75 259 2.0 4.0 0.00 0.00 0.00 49 1013.5
20260505224559 75 252 1.0 5.0 0.00 0.00 0.00 48 1013.5
20260505224057 75 253 2.0 5.0 0.00 0.00 0.00 47 1013.5
20260505223557 75 273 3.0 5.0 0.00 0.00 0.00 46 1013.6
20260505223108 75 267 1.0 3.0 0.00 0.00 0.00 46 1013.6
20260505222557 75 245 1.0 6.0 0.00 0.00 0.00 45 1013.4
20260505222058 75 257 2.0 7.0 0.00 0.00 0.00 46 1013.5
20260505221603 75 277 3.0 7.0 0.00 0.00 0.00 44 1013.5
20260505221054 75 243 4.0 8.0 0.00 0.00 0.00 45 1013.2
20260505220557 75 252 5.0 8.0 0.00 0.00 0.00 47 1013.3
20260505220100 76 255 4.0 12.0 0.00 0.00 0.00 45 1013.3
20260505215558 75 246 4.0 12.0 0.00 0.00 0.00 46 1013.5
20260505215057 75 233 5.0 12.0 0.00 0.00 0.00 46 1013.8
20260505214604 76 245 3.0 7.0 0.00 0.00 0.00 44 1013.6
20260505214057 76 274 3.0 7.0 0.00 0.00 0.00 43 1013.5
20260505213559 76 270 4.0 7.0 0.00 0.00 0.00 43 1013.6
20260505213056 76 248 4.0 7.0 0.00 0.00 0.00 42 1013.5
20260505212557 76 245 4.0 8.0 0.00 0.00 0.00 44 1013.5
20260505212058 76 274 3.0 9.0 0.00 0.00 0.00 44 1013.6
20260505211634 76 238 6.0 9.0 0.00 0.00 0.00 45 1013.7
20260505211055 76 251 5.0 9.0 0.00 0.00 0.00 42 1013.7
20260505210556 76 256 5.0 10.0 0.00 0.00 0.00 43 1013.7
20260505210103 76 237 4.0 10.0 0.00 0.00 0.00 47 1013.6
20260505205555 76 273 5.0 8.0 0.00 0.00 0.00 44 1013.8
20260505205057 76 230 5.0 8.0 0.00 0.00 0.00 45 1013.7
20260505204559 76 283 4.0 12.0 0.00 0.00 0.00 45 1013.7
20260505204100 76 250 5.0 12.0 0.00 0.00 0.00 45 1013.6
20260505203557 76 247 5.0 10.0 0.00 0.00 0.00 45 1013.7
20260505203123 76 264 5.0 8.0 0.00 0.00 0.00 44 1013.9
20260505202557 76 256 5.0 8.0 0.00 0.00 0.00 44 1013.9
20260505202058 76 237 4.0 7.0 0.00 0.00 0.00 43 1013.9
20260505201558 76 244 4.0 8.0 0.00 0.00 0.00 43 1014.0
20260505201057 77 242 4.0 11.0 0.00 0.00 0.00 43 1014.0
20260505200557 77 296 4.0 11.0 0.00 0.00 0.00 43 1014.1
20260505200057 77 271 4.0 10.0 0.00 0.00 0.00 42 1014.2
20260505195558 77 253 4.0 7.0 0.00 0.00 0.00 44 1014.2
20260505195058 77 249 3.0 10.0 0.00 0.00 0.00 43 1014.2
20260505194558 77 249 4.0 10.0 0.00 0.00 0.00 44 1014.2
20260505194055 78 250 4.0 7.0 0.00 0.00 0.00 46 1014.3
20260505193555 78 250 4.0 7.0 0.00 0.00 0.00 46 1014.3
20260505193057 77 258 3.0 6.0 0.00 0.00 0.00 44 1014.4
20260505192557 77 274 3.0 8.0 0.00 0.00 0.00 45 1014.4
20260505192054 77 284 3.0 8.0 0.00 0.00 0.00 42 1014.5
20260505191619 77 278 5.0 8.0 0.00 0.00 0.00 44 1014.5
20260505191129 77 271 4.0 6.0 0.00 0.00 0.00 44 1014.6
20260505190557 76 245 4.0 11.0 0.00 0.00 0.00 43 1014.7
20260505190057 77 253 4.0 11.0 0.00 0.00 0.00 43 1014.7
20260505185557 77 153 5.0 8.0 0.00 0.00 0.00 45 1014.8
20260505185057 77 274 4.0 7.0 0.00 0.00 0.00 41 1014.9
20260505184555 77 269 3.0 7.0 0.00 0.00 0.00 41 1015.0
20260505184057 77 256 4.0 8.0 0.00 0.00 0.00 41 1014.9
20260505183556 76 274 5.0 8.0 0.00 0.00 0.00 42 1015.1
20260505183105 77 250 5.0 8.0 0.00 0.00 0.00 42 1015.2
20260505182557 76 233 3.0 8.0 0.00 0.00 0.00 42 1015.3
20260505182058 76 259 5.0 9.0 0.00 0.00 0.00 43 1015.4
20260505181556 76 259 2.0 9.0 0.00 0.00 0.00 43 1015.4
20260505181055 76 260 4.0 8.0 0.00 0.00 0.00 42 1015.5
20260505180554 76 246 5.0 9.0 0.00 0.00 0.00 44 1015.6
20260505180114 76 239 4.0 9.0 0.00 0.00 0.00 44 1015.8
20260505175554 76 265 6.0 9.0 0.00 0.00 0.00 43 1015.9
20260505175104 76 250 4.0 9.0 0.00 0.00 0.00 45 1015.9
20260505174558 76 255 4.0 9.0 0.00 0.00 0.00 45 1015.9
20260505174057 76 246 4.0 11.0 0.00 0.00 0.00 46 1015.8
20260505173558 76 257 4.0 11.0 0.00 0.00 0.00 44 1015.8
20260505173056 76 231 6.0 11.0 0.00 0.00 0.00 45 1015.9
20260505172600 76 243 3.0 7.0 0.00 0.00 0.00 44 1015.9
20260505172057 76 257 4.0 7.0 0.00 0.00 0.00 44 1015.9
20260505171557 76 281 4.0 7.0 0.00 0.00 0.00 46 1015.9
20260505171057 76 250 2.0 7.0 0.00 0.00 0.00 46 1015.8
20260505170556 76 250 3.0 8.0 0.00 0.00 0.00 46 1015.8
20260505170059 75 276 3.0 8.0 0.00 0.00 0.00 46 1015.8
20260505165555 75 254 3.0 7.0 0.00 0.00 0.00 47 1015.9
20260505165056 75 245 4.0 7.0 0.00 0.00 0.00 46 1016.0
20260505164602 75 252 3.0 7.0 0.00 0.00 0.00 46 1016.2
20260505164057 75 248 3.0 6.0 0.00 0.00 0.00 46 1016.2
20260505163554 75 250 3.0 6.0 0.00 0.00 0.00 46 1016.3
20260505163059 74 257 3.0 6.0 0.00 0.00 0.00 47 1016.3
20260505162554 74 248 3.0 6.0 0.00 0.00 0.00 46 1016.4
20260505162058 74 255 2.0 6.0 0.00 0.00 0.00 47 1016.4
20260505161555 73 242 3.0 5.0 0.00 0.00 0.00 48 1016.4
20260505161054 73 259 4.0 6.0 0.00 0.00 0.00 49 1016.5
20260505160556 73 233 4.0 6.0 0.00 0.00 0.00 50 1016.6
20260505153058 71 252 2.0 3.0 0.00 0.00 0.00 58 1016.4
20260505152558 70 259 1.0 3.0 0.00 0.00 0.00 57 1016.5
20260505152054 70 231 1.0 3.0 0.00 0.00 0.00 59 1016.7
20260505151554 69 246 1.0 3.0 0.00 0.00 0.00 60 1016.8
20260505151054 68 246 2.0 3.0 0.00 0.00 0.00 61 1016.9
20260505150556 68 255 2.0 3.0 0.00 0.00 0.00 62 1016.8
20260505140557 62 240 1.0 2.0 0.00 0.00 0.00 71 1016.8
20260505140113 61 250 1.0 2.0 0.00 0.00 0.00 71 1016.7
20260505124602 56 0 0.0 0.0 0.00 0.00 0.00 80 1015.8
20260505124055 56 0 0.0 1.0 0.00 0.00 0.00 82 1015.9
20260505123555 56 40 0.0 1.0 0.00 0.00 0.00 83 1015.9
20260505123058 55 0 0.0 0.0 0.00 0.00 0.00 83 1015.8
20260505122555 55 0 0.0 0.0 0.00 0.00 0.00 85 1015.8
20260505122054 55 0 0.0 1.0 0.00 0.00 0.00 85 1015.9
20260505121602 54 0 0.0 1.0 0.00 0.00 0.00 85 1015.9
20260505121056 54 40 0.0 1.0 0.00 0.00 0.00 86 1016.0
20260505120555 54 40 0.0 1.0 0.00 0.00 0.00 86 1015.9
20260505120117 53 40 1.0 1.0 0.00 0.00 0.00 86 1015.9
20260505115555 53 41 0.0 1.0 0.00 0.00 0.00 87 1015.7
20260505115057 53 0 1.0 1.0 0.00 0.00 0.00 87 1015.7
20260505114557 53 0 0.0 1.0 0.00 0.00 0.00 86 1015.5
20260505114054 53 38 0.0 1.0 0.00 0.00 0.00 86 1015.4
20260505113559 53 0 0.0 1.0 0.00 0.00 0.00 86 1015.4
20260505113105 53 0 1.0 2.0 0.00 0.00 0.00 86 1015.4
20260505112555 53 33 1.0 2.0 0.00 0.00 0.00 86 1015.2
20260505112055 52 63 1.0 1.0 0.00 0.00 0.00 86 1015.3
20260505111600 52 63 0.0 1.0 0.00 0.00 0.00 86 1015.3
20260505111055 52 63 0.0 2.0 0.00 0.00 0.00 86 1015.2
20260505110555 52 63 1.0 2.0 0.00 0.00 0.00 86 1015.1
20260505110107 52 56 1.0 2.0 0.00 0.00 0.00 86 1015.1
20260505102054 52 8 1.0 2.0 0.00 0.00 0.00 83 1015.1
20260505101604 52 90 0.0 1.0 0.00 0.00 0.00 83 1015.2
20260505101055 52 0 0.0 1.0 0.00 0.00 0.00 82 1015.0
20260505100557 53 51 0.0 1.0 0.00 0.00 0.00 82 1015.0
20260505100108 53 51 0.0 2.0 0.00 0.00 0.00 82 1014.8
20260505095557 53 49 0.0 2.0 0.00 0.00 0.00 82 1014.9
20260505095100 53 58 0.0 2.0 0.00 0.00 0.00 82 1014.9
20260505094609 53 65 0.0 2.0 0.00 0.00 0.00 81 1014.9
20260505094055 53 66 1.0 2.0 0.00 0.00 0.00 81 1015.0
20260505093557 54 49 1.0 2.0 0.00 0.00 0.00 81 1014.8
20260505093104 54 41 1.0 2.0 0.00 0.00 0.00 80 1014.8
20260505092557 54 27 0.0 2.0 0.00 0.00 0.00 80 1014.9
20260505092056 54 27 1.0 2.0 0.00 0.00 0.00 80 1014.8
20260505091611 54 57 1.0 1.0 0.00 0.00 0.00 80 1014.9
20260505091056 54 53 1.0 1.0 0.00 0.00 0.00 80 1015.0
20260505090557 54 53 0.0 1.0 0.00 0.00 0.00 80 1014.9
20260505085555 55 54 1.0 2.0 0.00 0.00 0.00 80 1015.1
20260505085057 55 18 1.0 2.0 0.00 0.00 0.00 79 1015.1
20260505084607 55 18 1.0 2.0 0.00 0.00 0.00 79 1015.2
20260505084055 55 49 1.0 2.0 0.00 0.00 0.00 78 1015.0
20260505083558 55 22 1.0 2.0 0.00 0.00 0.00 78 1015.1
20260505083107 55 41 0.0 2.0 0.00 0.00 0.00 78 1015.2
20260505082555 55 13 1.0 2.0 0.00 0.00 0.00 78 1015.0
20260505082055 56 27 0.0 3.0 0.00 0.00 0.00 77 1015.1
20260505081605 56 12 1.0 3.0 0.00 0.00 0.00 77 1015.1
20260505081055 56 16 0.0 2.0 0.00 0.00 0.00 76 1015.2
20260505080554 56 24 1.0 2.0 0.00 0.00 0.00 76 1015.0
20260505080103 56 12 1.0 1.0 0.00 0.00 0.00 77 1015.1
20260505075555 56 12 0.0 2.0 0.00 0.00 0.00 76 1015.1
20260505075059 56 12 0.0 2.0 0.00 0.00 0.00 76 1015.1
20260505074559 56 11 1.0 2.0 0.00 0.00 0.00 76 1015.0
20260505074059 56 46 1.0 2.0 0.00 0.00 0.00 76 1015.0
20260505073559 56 47 1.0 2.0 0.00 0.00 0.00 77 1015.0
20260505073058 56 39 0.0 1.0 0.00 0.00 0.00 76 1015.0
20260505072602 57 39 0.0 3.0 0.00 0.00 0.00 75 1015.1
20260505072100 57 40 1.0 3.0 0.00 0.00 0.00 75 1015.0
20260505071601 58 58 2.0 3.0 0.00 0.00 0.00 74 1015.0
20260505071058 58 27 1.0 2.0 0.00 0.00 0.00 73 1015.0
20260505070601 58 11 1.0 2.0 0.00 0.00 0.00 72 1014.9
20260505070106 58 19 1.0 2.0 0.00 0.00 0.00 71 1014.9
20260505065556 59 17 0.0 2.0 0.00 0.00 0.00 69 1014.9
20260505065058 59 17 0.0 2.0 0.00 0.00 0.00 68 1014.9
20260505064559 59 22 1.0 2.0 0.00 0.00 0.00 68 1015.0
20260505064059 60 7 0.0 1.0 0.00 0.00 0.00 65 1015.0
20260505063558 60 0 0.0 1.0 0.00 0.00 0.00 65 1015.0
20260505063057 60 262 0.0 1.0 0.00 0.00 0.00 64 1015.0
20260505062602 61 259 0.0 1.0 0.00 0.00 0.00 62 1015.0
20260505062101 62 258 0.0 2.0 0.00 0.00 0.00 61 1015.2
20260505061621 62 256 1.0 2.0 0.00 0.00 0.00 61 1015.2
20260505061057 62 248 1.0 2.0 0.00 0.00 0.00 61 1015.3
20260505060601 62 257 1.0 2.0 0.00 0.00 0.00 61 1015.3
20260505055557 63 262 0.0 4.0 0.00 0.00 0.00 59 1015.3
20260505055058 63 254 1.0 4.0 0.00 0.00 0.00 58 1015.2
20260505054557 63 250 2.0 4.0 0.00 0.00 0.00 57 1015.3
20260505054057 63 249 1.0 3.0 0.00 0.00 0.00 59 1015.2
20260505053557 63 233 1.0 3.0 0.00 0.00 0.00 59 1015.3
20260505053058 64 238 1.0 3.0 0.00 0.00 0.00 58 1015.4
20260505052600 64 240 1.0 3.0 0.00 0.00 0.00 59 1015.3
20260505052100 64 270 2.0 3.0 0.00 0.00 0.00 59 1015.3
20260505051600 64 241 1.0 2.0 0.00 0.00 0.00 59 1015.2
20260505051059 64 243 1.0 3.0 0.00 0.00 0.00 61 1015.1
20260505050558 64 244 2.0 3.0 0.00 0.00 0.00 61 1015.2
20260505041601 65 242 3.0 5.0 0.00 0.00 0.00 58 1015.2
20260505041055 65 262 2.0 4.0 0.00 0.00 0.00 58 1015.3
20260505040555 65 250 2.0 4.0 0.00 0.00 0.00 58 1015.3
20260505040103 65 252 2.0 5.0 0.00 0.00 0.00 58 1015.3
20260505035555 65 268 2.0 5.0 0.00 0.00 0.00 57 1015.3
20260505035057 65 248 2.0 4.0 0.00 0.00 0.00 62 1015.2
20260505034602 64 249 2.0 4.0 0.00 0.00 0.00 62 1015.2
20260505034055 64 272 2.0 4.0 0.00 0.00 0.00 62 1015.2
20260505033555 63 250 2.0 3.0 0.00 0.00 0.00 67 1015.3
20260505033105 62 0 0.0 2.0 0.00 0.00 0.00 64 1015.4
20260505032555 62 18 0.0 2.0 0.00 0.00 0.00 63 1015.4
20260505032058 62 0 0.0 2.0 0.00 0.00 0.00 62 1015.4
20260505031558 62 45 1.0 2.0 0.00 0.00 0.00 62 1015.4
20260505031054 62 24 0.0 2.0 0.00 0.00 0.00 62 1015.4
20260505030558 62 13 1.0 2.0 0.00 0.00 0.00 62 1015.4
20260505030100 62 3 1.0 1.0 0.00 0.00 0.00 62 1015.3
20260505025554 63 338 0.0 1.0 0.00 0.00 0.00 61 1015.3
20260505025055 64 326 0.0 2.0 0.00 0.00 0.00 60 1015.3
20260505024556 64 255 0.0 2.0 0.00 0.00 0.00 61 1015.3
20260505024054 64 262 0.0 1.0 0.00 0.00 0.00 61 1015.2
20260505023555 64 0 0.0 1.0 0.00 0.00 0.00 60 1015.2
20260505023057 65 265 0.0 1.0 0.00 0.00 0.00 58 1015.3
20260505022556 66 264 0.0 2.0 0.00 0.00 0.00 58 1015.3
20260505022057 66 261 0.0 3.0 0.00 0.00 0.00 58 1015.3
20260505021602 67 246 1.0 3.0 0.00 0.00 0.00 58 1015.2
20260505021054 67 240 1.0 3.0 0.00 0.00 0.00 56 1015.1
20260505020554 67 250 2.0 3.0 0.00 0.00 0.00 56 1014.9
20260505020055 67 250 2.0 3.0 0.00 0.00 0.00 57 1014.9
20260505015554 67 239 2.0 4.0 0.00 0.00 0.00 57 1014.9
20260505015054 67 244 3.0 4.0 0.00 0.00 0.00 56 1014.9
20260505014556 67 245 2.0 3.0 0.00 0.00 0.00 57 1014.7
20260505014054 67 259 2.0 3.0 0.00 0.00 0.00 56 1014.7
20260505013554 67 248 2.0 3.0 0.00 0.00 0.00 58 1014.6
20260505013055 68 238 2.0 3.0 0.00 0.00 0.00 57 1014.7
20260505012555 68 248 2.0 3.0 0.00 0.00 0.00 57 1014.6
20260505012056 68 240 2.0 3.0 0.00 0.00 0.00 57 1014.6
20260505011613 68 247 1.0 2.0 0.00 0.00 0.00 56 1014.6
20260505011059 68 248 1.0 2.0 0.00 0.00 0.00 56 1014.6
20260505010558 69 248 1.0 2.0 0.00 0.00 0.00 56 1014.4
20260505010107 69 240 1.0 2.0 0.00 0.00 0.00 56 1014.5
20260505005558 69 237 1.0 3.0 0.00 0.00 0.00 54 1014.4
20260505005101 70 235 2.0 5.0 0.00 0.00 0.00 55 1014.3
20260505004600 70 250 2.0 5.0 0.00 0.00 0.00 55 1014.3
20260505004058 70 243 4.0 5.0 0.00 0.00 0.00 52 1014.2
20260505003558 70 254 3.0 5.0 0.00 0.00 0.00 54 1014.2
20260505003058 71 251 4.0 5.0 0.00 0.00 0.00 52 1014.0